KG4S Weather Reports


time (UTC)temp
C
wind
direction
speed
KPH
gust
KPH
rain 1hr
cm
rain 24hr
cm
rain mn
cm
humidity
%
barometer
mb
20260507213107 16 272 1.6 9.7 0.00 0.00 0.00 29 1014.5
20260507212707 16 269 3.2 8.0 0.00 0.00 0.00 29 1014.5
20260507212108 16 285 3.2 9.7 0.00 0.00 0.00 31 1014.4
20260507211607 16 94 1.6 8.0 0.00 0.00 0.00 32 1014.5
20260507211107 16 306 1.6 4.8 0.00 0.00 0.00 34 1014.5
20260507210525 16 271 3.2 9.7 0.00 0.00 0.00 35 1014.5
20260507210127 16 270 4.8 14.5 0.00 0.00 0.00 36 1014.4
20260507205607 16 321 3.2 6.4 0.00 0.00 0.00 36 1014.3
20260507205127 16 101 1.6 6.4 0.00 0.00 0.00 37 1014.3
20260507204607 16 326 3.2 6.4 0.00 0.00 0.00 37 1014.4
20260507204127 16 284 3.2 4.8 0.00 0.00 0.00 38 1014.4
20260507203607 16 237 4.8 14.5 0.00 0.00 0.00 38 1014.2
20260507203107 15 224 3.2 11.3 0.00 0.00 0.00 39 1014.4
20260507202647 16 315 3.2 12.9 0.00 0.00 0.00 38 1014.3
20260507202107 15 228 1.6 6.4 0.00 0.00 0.00 39 1014.4
20260507201607 15 3 1.6 4.8 0.00 0.00 0.00 38 1014.3
20260507201107 16 337 3.2 8.0 0.00 0.00 0.00 40 1014.5
20260507200607 16 296 3.2 8.0 0.00 0.00 0.00 38 1014.5
20260507200107 16 268 1.6 4.8 0.00 0.00 0.00 39 1014.7
20260507195607 15 28 3.2 4.8 0.00 0.00 0.00 38 1014.7
20260507195107 15 21 1.6 6.4 0.00 0.00 0.00 38 1014.6
20260507194607 15 40 3.2 6.4 0.00 0.00 0.00 39 1014.6
20260507194107 15 360 1.6 6.4 0.00 0.00 0.00 38 1014.7
20260507193707 15 48 3.2 6.4 0.00 0.00 0.00 38 1014.6
20260507193107 15 314 3.2 9.7 0.00 0.00 0.00 39 1014.6
20260507192607 15 257 1.6 6.4 0.00 0.00 0.00 39 1014.7
20260507192127 14 31 0.0 4.8 0.00 0.00 0.00 40 1014.8
20260507191607 15 359 1.6 4.8 0.00 0.00 0.00 39 1014.9
20260507191107 15 266 3.2 6.4 0.00 0.00 0.00 39 1014.8
20260507190607 15 347 3.2 8.0 0.00 0.00 0.00 39 1014.8
20260507190107 15 334 3.2 6.4 0.00 0.00 0.00 40 1014.9
20260507185607 15 317 3.2 9.7 0.00 0.00 0.00 40 1014.9
20260507185107 15 219 1.6 9.7 0.00 0.00 0.00 40 1015.0
20260507184607 15 232 4.8 9.7 0.00 0.00 0.00 41 1014.9
20260507184107 15 235 4.8 11.3 0.00 0.00 0.00 40 1015.0
20260507183647 15 222 3.2 8.0 0.00 0.00 0.00 40 1015.0
20260507183107 15 242 3.2 8.0 0.00 0.00 0.00 39 1015.0
20260507182607 15 304 3.2 4.8 0.00 0.00 0.00 42 1015.1
20260507182107 14 47 1.6 6.4 0.00 0.00 0.00 40 1015.0
20260507181647 15 328 3.2 6.4 0.00 0.00 0.00 41 1014.9
20260507181107 15 286 1.6 9.7 0.00 0.00 0.00 42 1015.0
20260507180627 15 313 3.2 9.7 0.00 0.00 0.00 42 1015.0
20260507180107 15 343 3.2 8.0 0.00 0.00 0.00 43 1015.1
20260507175607 15 315 3.2 9.7 0.00 0.00 0.00 43 1015.1
20260507175107 15 34 1.6 4.8 0.00 0.00 0.00 43 1015.1
20260507174607 14 347 3.2 6.4 0.00 0.00 0.00 43 1015.2
20260507174107 14 358 1.6 11.3 0.00 0.00 0.00 44 1015.2
20260507173627 14 8 3.2 4.8 0.00 0.00 0.00 44 1015.3
20260507173107 14 313 1.6 8.0 0.00 0.00 0.00 42 1015.2
20260507172627 14 264 3.2 8.0 0.00 0.00 0.00 44 1015.5
20260507172207 14 272 4.8 9.7 0.00 0.00 0.00 44 1015.7
20260507171627 14 236 1.6 6.4 0.00 0.00 0.00 45 1015.8
20260507171107 14 254 1.6 9.7 0.00 0.00 0.00 47 1015.8
20260507170608 13 259 1.6 6.4 0.00 0.00 0.00 45 1015.7
20260507170107 14 241 3.2 8.0 0.00 0.00 0.00 45 1015.8
20260507165627 14 308 3.2 6.4 0.00 0.00 0.00 46 1015.7
20260507165107 13 317 1.6 6.4 0.00 0.00 0.00 45 1015.7
20260507164607 13 18 3.2 8.0 0.00 0.00 0.00 46 1015.6
20260507164107 13 136 3.2 4.8 0.00 0.00 0.00 49 1015.5
20260507163607 13 230 3.2 8.0 0.00 0.00 0.00 45 1015.9
20260507163107 13 296 3.2 6.4 0.00 0.00 0.00 46 1015.9
20260507162607 13 268 1.6 8.0 0.00 0.00 0.00 46 1016.0
20260507162107 13 37 1.6 8.0 0.00 0.00 0.00 47 1016.0
20260507161607 13 305 1.6 8.0 0.00 0.00 0.00 48 1016.0
20260507161107 13 319 0.0 8.0 0.00 0.00 0.00 47 1016.0
20260507160627 13 230 1.6 6.4 0.00 0.00 0.00 47 1015.9
20260507160107 13 205 0.0 3.2 0.00 0.00 0.00 48 1016.0
20260507155607 13 351 0.0 3.2 0.00 0.00 0.00 48 1015.9
20260507155107 12 80 1.6 6.4 0.00 0.00 0.00 48 1016.0
20260507154607 12 330 0.0 6.4 0.00 0.00 0.00 47 1016.1
20260507154107 12 181 0.0 3.2 0.00 0.00 0.00 48 1016.1
20260507153607 12 221 1.6 4.8 0.00 0.00 0.00 48 1016.0
20260507153107 12 8 1.6 4.8 0.00 0.00 0.00 50 1015.9
20260507152607 12 18 1.6 6.4 0.00 0.00 0.00 49 1015.8
20260507152107 12 89 1.6 6.4 0.00 0.00 0.00 49 1015.8
20260507151607 12 314 1.6 6.4 0.00 0.00 0.00 49 1015.8
20260507151107 12 81 1.6 4.8 0.00 0.00 0.00 51 1015.8
20260507150607 12 79 1.6 4.8 0.00 0.00 0.00 50 1015.9
20260507150107 12 47 1.6 6.4 0.00 0.00 0.00 51 1015.8
20260507145607 12 99 3.2 4.8 0.00 0.00 0.00 51 1015.7
20260507145107 12 0.0 4.8 0.00 0.00 0.00 51 1015.7
20260507144607 12 29 1.6 6.4 0.00 0.00 0.00 52 1015.7
20260507144107 12 67 1.6 6.4 0.00 0.00 0.00 53 1015.7
20260507143607 11 25 3.2 6.4 0.00 0.00 0.00 53 1015.7
20260507143127 11 322 1.6 6.4 0.00 0.00 0.00 54 1015.7
20260507142607 12 27 1.6 6.4 0.00 0.00 0.00 57 1015.7
20260507142107 11 31 1.6 6.4 0.00 0.00 0.00 57 1015.8
20260507141607 12 67 3.2 9.7 0.00 0.00 0.00 57 1015.7
20260507141127 11 89 1.6 9.7 0.00 0.00 0.00 57 1015.7
20260507140608 11 88 1.6 8.0 0.00 0.00 0.00 59 1015.7
20260507140106 11 40 3.2 8.0 0.00 0.00 0.00 60 1015.7
20260507135626 11 61 3.2 8.0 0.00 0.00 0.00 60 1015.7
20260507135106 11 47 4.8 6.4 0.00 0.00 0.00 60 1015.7
20260507134606 11 63 1.6 4.8 0.00 0.00 0.00 61 1015.6
20260507134106 11 62 3.2 6.4 0.00 0.00 0.00 61 1015.7
20260507133607 11 55 1.6 6.4 0.00 0.00 0.00 62 1015.9
20260507133127 10 53 1.6 4.8 0.00 0.00 0.00 63 1015.8
20260507132606 10 30 4.8 8.0 0.00 0.00 0.00 63 1015.8
20260507132106 10 46 3.2 8.0 0.00 0.00 0.00 64 1015.8
20260507131607 10 63 3.2 6.4 0.00 0.00 0.00 65 1015.9
20260507131106 10 41 3.2 6.4 0.00 0.00 0.00 66 1015.8
20260507130626 10 64 3.2 6.4 0.00 0.00 0.00 67 1015.9
20260507130107 10 59 1.6 6.4 0.00 0.00 0.00 67 1015.9
20260507125607 9 55 4.8 8.0 0.00 0.00 0.00 68 1016.0
20260507125107 9 44 3.2 6.4 0.00 0.00 0.00 68 1015.9
20260507124607 9 50 3.2 8.0 0.00 0.00 0.00 70 1015.9
20260507124127 9 39 3.2 8.0 0.00 0.00 0.00 70 1016.0
20260507123627 9 63 3.2 6.4 0.00 0.00 0.00 72 1016.0
20260507123107 8 15 1.6 6.4 0.00 0.00 0.00 72 1016.0
20260507122607 8 47 1.6 6.4 0.00 0.00 0.00 72 1016.0
20260507122106 8 42 3.2 6.4 0.00 0.00 0.00 73 1016.0
20260507121607 8 75 1.6 4.8 0.00 0.00 0.00 75 1016.0
20260507121107 8 47 1.6 6.4 0.00 0.00 0.00 75 1015.8
20260507120607 8 26 1.6 4.8 0.00 0.00 0.00 76 1016.0
20260507120107 8 68 1.6 6.4 0.00 0.00 0.00 77 1015.8
20260507115607 8 52 1.6 6.4 0.00 0.00 0.00 79 1015.8
20260507115107 7 0.0 3.2 0.00 0.00 0.00 80 1015.7
20260507114607 7 27 1.6 3.2 0.00 0.00 0.00 81 1015.7
20260507114127 7 0.0 1.6 0.00 0.00 0.00 82 1015.7
20260507113627 7 0.0 1.6 0.00 0.00 0.00 83 1015.6
20260507113107 7 0.0 1.6 0.00 0.00 0.00 84 1015.6
20260507112607 7 22 0.0 3.2 0.00 0.00 0.00 85 1015.6
20260507112107 7 0.0 1.6 0.00 0.00 0.00 84 1015.5
20260507111607 7 83 0.0 3.2 0.00 0.00 0.00 84 1015.4
20260507111106 6 64 1.6 1.6 0.00 0.00 0.00 85 1015.4
20260507110607 6 0.0 1.6 0.00 0.00 0.00 85 1015.3
20260507110107 6 293 0.0 1.6 0.00 0.00 0.00 85 1015.2
20260507105607 6 0.0 1.6 0.00 0.00 0.00 85 1015.2
20260507105107 7 0.0 1.6 0.00 0.00 0.00 85 1015.0
20260507104607 7 0.0 1.6 0.00 0.00 0.00 84 1015.1
20260507104106 7 0.0 1.6 0.00 0.00 0.00 84 1015.0
20260507103606 7 0.0 1.6 0.00 0.00 0.00 84 1015.1
20260507103107 7 0.0 1.6 0.00 0.00 0.00 84 1015.0
20260507102606 7 0.0 1.6 0.00 0.00 0.00 83 1014.8
20260507102106 7 31 0.0 1.6 0.00 0.00 0.00 83 1015.0
20260507101607 7 163 0.0 1.6 0.00 0.00 0.00 84 1015.0
20260507101107 7 0.0 1.6 0.00 0.00 0.00 84 1015.0
20260507100607 7 336 0.0 3.2 0.00 0.00 0.00 84 1015.0
20260507100147 7 0.0 1.6 0.00 0.00 0.00 84 1015.0
20260507095606 7 0.0 1.6 0.00 0.00 0.00 85 1015.0
20260507095127 7 0.0 1.6 0.00 0.00 0.00 85 1014.9
20260507094607 7 137 0.0 1.6 0.00 0.00 0.00 86 1014.9
20260507094107 7 0.0 1.6 0.00 0.00 0.00 87 1015.1
20260507093607 7 0.0 1.6 0.00 0.00 0.00 86 1015.0
20260507093107 7 0.0 1.6 0.00 0.00 0.00 86 1015.0
20260507092606 7 0.0 1.6 0.00 0.00 0.00 85 1015.0
20260507092107 7 0.0 1.6 0.00 0.00 0.00 86 1014.9
20260507091627 7 0.0 3.2 0.00 0.00 0.00 87 1015.0
20260507091106 7 0.0 3.2 0.00 0.00 0.00 87 1015.0
20260507090607 8 0.0 1.6 0.00 0.00 0.00 87 1015.1
20260507090106 8 0.0 1.6 0.00 0.00 0.00 86 1015.1
20260507085607 8 0.0 3.2 0.00 0.00 0.00 85 1015.0
20260507085127 8 0.0 3.2 0.00 0.00 0.00 85 1014.9
20260507084626 8 0.0 1.6 0.00 0.00 0.00 84 1014.8
20260507084108 8 0.0 3.2 0.00 0.00 0.00 84 1014.9
20260507083607 8 118 1.6 3.2 0.00 0.00 0.00 84 1014.8
20260507083107 8 359 0.0 1.6 0.00 0.00 0.00 83 1014.9
20260507082607 8 0.0 1.6 0.00 0.00 0.00 81 1014.9
20260507082107 8 42 0.0 1.6 0.00 0.00 0.00 80 1014.8
20260507081607 8 0.0 3.2 0.00 0.00 0.00 80 1014.7
20260507081107 8 0.0 3.2 0.00 0.00 0.00 80 1014.7
20260507080606 8 314 0.0 3.2 0.00 0.00 0.00 79 1014.6
20260507080106 8 0.0 1.6 0.00 0.00 0.00 79 1014.6
20260507075606 9 56 0.0 3.2 0.00 0.00 0.00 78 1014.8
20260507075126 9 181 1.6 4.8 0.00 0.00 0.00 78 1014.6
20260507074606 9 203 0.0 3.2 0.00 0.00 0.00 78 1014.6
20260507074126 9 244 0.0 1.6 0.00 0.00 0.00 77 1014.4
20260507073606 9 113 0.0 3.2 0.00 0.00 0.00 77 1014.6
20260507073106 9 300 0.0 3.2 0.00 0.00 0.00 77 1014.5
20260507072606 9 345 3.2 4.8 0.00 0.00 0.00 76 1014.6
20260507072126 9 70 1.6 4.8 0.00 0.00 0.00 76 1014.5
20260507071626 9 91 1.6 4.8 0.00 0.00 0.00 76 1014.4
20260507071106 10 0.0 4.8 0.00 0.00 0.00 76 1014.5
20260507070626 10 18 1.6 4.8 0.00 0.00 0.00 75 1014.6
20260507070106 10 205 1.6 4.8 0.00 0.00 0.00 75 1014.5
20260507065606 10 69 1.6 3.2 0.00 0.00 0.00 75 1014.5
20260507065106 10 110 0.0 3.2 0.00 0.00 0.00 75 1014.6
20260507064606 10 6 1.6 3.2 0.00 0.00 0.00 75 1014.8
20260507064126 10 319 3.2 4.8 0.00 0.00 0.00 75 1014.7
20260507063628 10 20 1.6 3.2 0.00 0.00 0.00 75 1014.8
20260507063106 10 108 1.6 4.8 0.00 0.00 0.00 75 1014.8
20260507062606 10 49 1.6 3.2 0.00 0.00 0.00 76 1014.8
20260507062106 10 194 0.0 3.2 0.00 0.00 0.00 75 1015.0
20260507061606 10 102 1.6 3.2 0.00 0.00 0.00 73 1015.1
20260507061106 10 132 1.6 4.8 0.00 0.00 0.00 71 1015.0
20260507060606 10 0.0 3.2 0.00 0.00 0.00 71 1015.0
20260507060106 10 0.0 3.2 0.00 0.00 0.00 72 1015.0
20260507055626 10 135 3.2 4.8 0.00 0.00 0.00 71 1015.0
20260507055106 10 142 1.6 4.8 0.00 0.00 0.00 71 1014.9
20260507054606 11 23 1.6 4.8 0.00 0.00 0.00 71 1014.8
20260507054106 11 316 1.6 3.2 0.00 0.00 0.00 71 1014.8
20260507053626 11 0.0 3.2 0.00 0.00 0.00 72 1014.9
20260507053106 11 52 1.6 4.8 0.00 0.00 0.00 71 1015.0
20260507052626 11 33 1.6 3.2 0.00 0.00 0.00 71 1014.9
20260507052106 11 158 1.6 4.8 0.00 0.00 0.00 71 1015.0
20260507051606 11 101 1.6 6.4 0.00 0.00 0.00 71 1014.8
20260507051110 11 0.0 3.2 0.00 0.00 0.00 72 1014.9
20260507050606 11 0.0 3.2 0.00 0.00 0.00 72 1015.0
20260507050106 11 233 1.6 3.2 0.00 0.00 0.00 72 1014.8
20260507045606 11 118 1.6 3.2 0.00 0.00 0.00 71 1015.2
20260507045106 11 165 1.6 3.2 0.00 0.00 0.00 71 1015.3
20260507044606 11 333 0.0 3.2 0.00 0.00 0.00 71 1015.2
20260507044106 11 0.0 3.2 0.00 0.00 0.00 71 1015.1
20260507043606 11 0.0 0.0 0.00 0.00 0.00 71 1015.1
20260507043106 11 0.0 1.6 0.00 0.00 0.00 71 1015.3
20260507042646 11 114 0.0 3.2 0.00 0.00 0.00 72 1015.2
20260507042106 11 0.0 4.8 0.00 0.00 0.00 71 1015.1
20260507041606 11 351 0.0 4.8 0.00 0.00 0.00 72 1015.1
20260507041106 11 0.0 3.2 0.00 0.00 0.00 72 1015.2
20260507040626 11 0.0 1.6 0.00 0.00 0.00 72 1015.2
20260507040107 11 0.0 1.6 0.00 0.00 0.00 72 1015.2
20260507035607 11 0.0 3.2 0.00 0.00 0.00 72 1015.2
20260507035107 11 21 0.0 3.2 0.00 0.00 0.00 72 1015.3
20260507034627 11 0.0 1.6 0.00 0.00 0.00 73 1015.3
20260507034107 11 0.0 1.6 0.00 0.00 0.00 73 1015.4
20260507033607 11 347 0.0 3.2 0.00 0.00 0.00 73 1015.5
20260507033107 11 0.0 0.0 0.00 0.00 0.00 74 1015.4
20260507032627 11 0.0 1.6 0.00 0.00 0.00 74 1015.4
20260507032107 11 53 0.0 1.6 0.00 0.00 0.00 75 1015.6
20260507031607 11 0.0 1.6 0.00 0.00 0.00 76 1015.3
20260507031107 11 0.0 0.0 0.00 0.00 0.00 76 1015.3
20260507030607 11 0.0 1.6 0.00 0.00 0.00 76 1015.3
20260507030106 11 0.0 1.6 0.00 0.00 0.00 78 1015.2
20260507025606 11 0.0 1.6 0.00 0.00 0.00 78 1015.2
20260507025126 11 0.0 0.0 0.00 0.00 0.00 78 1015.3
20260507024606 11 0.0 0.0 0.00 0.00 0.00 78 1015.2
20260507024106 12 0.0 1.6 0.00 0.00 0.00 78 1014.8
20260507023606 12 0.0 1.6 0.00 0.00 0.00 75 1014.8
20260507023106 12 0.0 0.0 0.00 0.00 0.00 75 1014.6
20260507022606 12 0.0 0.0 0.00 0.00 0.00 75 1014.4
20260507022106 12 0.0 1.6 0.00 0.00 0.00 77 1014.1
20260507021606 12 0.0 1.6 0.00 0.00 0.00 77 1014.1
20260507021106 12 0.0 1.6 0.00 0.00 0.00 77 1014.3
20260507020606 12 0.0 1.6 0.00 0.00 0.00 77 1014.1
20260507020106 12 0.0 0.0 0.00 0.00 0.00 77 1014.2
20260507015626 12 0.0 1.6 0.00 0.00 0.00 77 1014.1
20260507015106 12 0.0 0.0 0.00 0.00 0.00 78 1014.1
20260507014626 12 0.0 0.0 0.00 0.00 0.00 79 1014.1
20260507014106 12 0.0 0.0 0.00 0.00 0.00 80 1014.0
20260507013626 12 0.0 0.0 0.00 0.00 0.00 80 1014.1
20260507013106 12 0.0 0.0 0.00 0.00 0.00 80 1014.3
20260507012606 12 0.0 0.0 0.00 0.00 0.00 80 1014.3
20260507012106 12 0.0 0.0 0.00 0.00 0.00 80 1014.3
20260507011626 12 0.0 0.0 0.00 0.00 0.00 81 1014.4
20260507010606 12 0.0 0.0 0.00 0.00 0.00 83 1014.1
20260507010106 12 0.0 1.6 0.00 0.00 0.00 83 1014.7
20260507005607 12 0.0 1.6 0.00 0.00 0.00 85 1014.7
20260507005127 12 0.0 0.0 0.00 0.00 0.00 85 1014.4
20260507004626 12 0.0 0.0 0.00 0.00 0.00 85 1014.3
20260507004127 12 0.0 0.0 0.00 0.00 0.00 85 1014.2
20260507003607 12 0.0 0.0 0.00 0.00 0.00 84 1014.4
20260507003107 12 0.0 1.6 0.00 0.00 0.00 84 1014.5
20260507002607 12 0.0 0.0 0.00 0.00 0.00 85 1014.4
20260507002106 12 0.0 0.0 0.00 0.00 0.00 84 1013.8
20260507001607 12 0.0 0.0 0.00 0.00 0.00 84 1013.4
20260507001107 12 0.0 0.0 0.00 0.00 0.00 84 1013.7
20260507000607 12 0.0 1.6 0.00 0.00 0.00 83 1014.1
20260507000107 13 123 0.0 1.6 0.00 0.00 0.00 83 1014.1
20260506235607 12 0.0 1.6 0.00 0.00 0.00 83 1013.9
20260506235106 13 0.0 0.0 0.00 0.00 0.00 82 1013.7
20260506234607 13 0.0 1.6 0.00 0.00 0.00 81 1013.4
20260506234106 13 0.0 1.6 0.00 0.00 0.00 80 1013.5
20260506233607 13 0.0 0.0 0.00 0.00 0.00 81 1013.3
20260506233127 13 0.0 3.2 0.00 0.00 0.00 80 1013.4
20260506232607 13 35 1.6 3.2 0.00 0.00 0.00 80 1013.9
20260506232107 13 216 0.0 3.2 0.00 0.00 0.00 80 1014.1
20260506231627 13 0.0 1.6 0.00 0.00 0.00 78 1013.5
20260506231106 13 0.0 0.0 0.00 0.00 0.00 78 1012.6
20260506230607 13 0.0 0.0 0.00 0.00 0.00 78 1012.6
20260506230127 13 0.0 0.0 0.00 0.00 0.00 79 1012.6
20260506225607 13 0.0 0.0 0.00 0.00 0.00 78 1012.8
20260506225107 13 0.0 1.6 0.00 0.00 0.00 76 1013.3
20260506224607 13 0.0 3.2 0.00 0.00 0.00 75 1013.9
20260506224107 13 64 0.0 3.2 0.00 0.00 0.00 76 1013.8
20260506223627 13 0.0 1.6 0.00 0.00 0.00 74 1013.3
20260506223107 14 26 0.0 3.2 0.00 0.00 0.00 75 1013.0
20260506222627 14 0.0 3.2 0.00 0.00 0.00 74 1012.9
20260506222107 14 0.0 1.6 0.00 0.00 0.00 75 1012.7
20260506221607 14 0.0 0.0 0.00 0.00 0.00 75 1012.7
20260506221107 14 31 0.0 3.2 0.00 0.00 0.00 75 1012.7
20260506220627 14 35 0.0 1.6 0.00 0.00 0.00 75 1012.7
20260506220106 14 21 0.0 3.2 0.00 0.00 0.00 75 1012.8
20260506215606 13 0.0 3.2 0.00 0.00 0.00 76 1012.9
20260506215126 14 308 1.6 3.2 0.00 0.00 0.00 76 1013.2
20260506214606 14 36 0.0 3.2 0.00 0.00 0.00 76 1013.2
20260506214106 14 0.0 0.0 0.00 0.00 0.00 77 1013.4
20260506213606 13 0.0 3.2 0.00 0.00 0.00 77 1013.3